Time,TemperatureF,DewpointF,PressureIn,WindDirection,WindDirectionDegrees,WindSpeedMPH,WindSpeedGustMPH,Humidity,HourlyPrecipIn,Conditions,Clouds,dailyrainin,SoftwareType,DateUTC
2013-01-09 00:00:00,49.2,44.0,30.30,ENE,61,3.0,-999.0,83,-99.99,,,0.00,weatherlink.com 1.10,2013-01-09 06:00:00,
2013-01-09 00:15:00,49.3,44.0,30.30,ENE,63,1.0,-999.0,83,-99.99,,,0.00,weatherlink.com 1.10,2013-01-09 06:15:00,
2013-01-09 00:30:00,49.1,45.0,30.30,NE,43,2.0,-999.0,84,-99.99,,,0.00,weatherlink.com 1.10,2013-01-09 06:30:00,
2013-01-09 00:45:00,48.9,44.0,30.30,NE,43,1.0,-999.0,84,-99.99,,,0.00,weatherlink.com 1.10,2013-01-09 06:45:00,
2013-01-09 01:00:00,48.8,45.0,30.31,NE,43,0.0,-999.0,85,-99.99,,,0.00,weatherlink.com 1.10,2013-01-09 07:00:00,
2013-01-09 01:15:00,48.5,45.0,30.30,NE,43,2.0,-999.0,86,-99.99,,,0.00,weatherlink.com 1.10,2013-01-09 07:15:00,
2013-01-09 01:30:00,48.7,45.0,30.32,NNE,30,0.0,-999.0,86,-99.99,,,0.00,weatherlink.com 1.10,2013-01-09 07:30:00,
2013-01-09 01:45:00,48.8,45.0,30.32,NNE,30,0.0,-999.0,85,-99.99,,,0.00,weatherlink.com 1.10,2013-01-09 07:45:00,
2013-01-09 02:00:00,49.0,45.0,30.30,East,79,4.0,-999.0,85,-99.99,,,0.00,weatherlink.com 1.10,2013-01-09 08:00:00,
2013-01-09 02:15:00,49.4,45.0,30.31,NE,43,3.0,-999.0,85,-99.99,,,0.00,weatherlink.com 1.10,2013-01-09 08:15:00,
2013-01-09 02:31:00,49.5,45.0,30.31,NE,37,3.0,-999.0,84,-99.99,,,0.00,weatherlink.com 1.10,2013-01-09 08:31:00,
2013-01-09 02:46:00,49.6,45.0,30.32,ENE,59,2.0,-999.0,84,-99.99,,,0.00,weatherlink.com 1.10,2013-01-09 08:46:00,
2013-01-09 03:01:00,49.6,45.0,30.32,ENE,59,0.0,-999.0,84,-99.99,,,0.00,weatherlink.com 1.10,2013-01-09 09:01:00,
2013-01-09 03:16:00,49.6,45.0,30.31,NE,37,1.0,-999.0,84,-99.99,,,0.00,weatherlink.com 1.10,2013-01-09 09:16:00,
2013-01-09 03:31:00,49.6,45.0,30.32,ENE,57,2.0,-999.0,84,-99.99,,,0.00,weatherlink.com 1.10,2013-01-09 09:31:00,
2013-01-09 03:46:00,49.7,45.0,30.32,NE,46,2.0,-999.0,83,-99.99,,,0.00,weatherlink.com 1.10,2013-01-09 09:46:00,
2013-01-09 04:01:00,50.0,45.0,30.32,NE,47,7.0,-999.0,82,-99.99,,,0.00,weatherlink.com 1.10,2013-01-09 10:01:00,
2013-01-09 04:16:00,50.2,45.0,30.32,ENE,69,2.0,-999.0,82,-99.99,,,0.00,weatherlink.com 1.10,2013-01-09 10:16:00,
2013-01-09 04:31:00,49.9,45.0,30.32,East,83,5.0,-999.0,83,-99.99,,,0.00,weatherlink.com 1.10,2013-01-09 10:31:00,
2013-01-09 04:46:00,49.4,45.0,30.33,NE,52,2.0,-999.0,86,-99.99,,,0.00,weatherlink.com 1.10,2013-01-09 10:46:00,
2013-01-09 05:01:00,48.9,47.0,30.33,NE,36,4.0,-999.0,92,-99.99,,,0.01,weatherlink.com 1.10,2013-01-09 11:01:00,
2013-01-09 05:16:00,48.2,46.0,30.32,NE,43,3.0,-999.0,91,-99.99,,,0.01,weatherlink.com 1.10,2013-01-09 11:16:00,
2013-01-09 05:31:00,47.7,46.0,30.32,ENE,60,2.0,-999.0,92,-99.99,,,0.02,weatherlink.com 1.10,2013-01-09 11:31:00,
2013-01-09 05:46:00,47.5,46.0,30.33,NNE,28,0.0,-999.0,93,-99.99,,,0.03,weatherlink.com 1.10,2013-01-09 11:46:00,
2013-01-09 06:01:00,47.5,46.0,30.34,NE,56,2.0,-999.0,94,-99.99,,,0.03,weatherlink.com 1.10,2013-01-09 12:01:00,
2013-01-09 06:16:00,47.4,46.0,30.33,ENE,63,4.0,-999.0,94,-99.99,,,0.03,weatherlink.com 1.10,2013-01-09 12:16:00,
2013-01-09 06:31:00,47.4,46.0,30.33,NE,48,0.0,-999.0,94,-99.99,,,0.03,weatherlink.com 1.10,2013-01-09 12:31:00,
2013-01-09 06:46:00,47.4,46.0,30.35,ENE,76,0.0,-999.0,94,-99.99,,,0.03,weatherlink.com 1.10,2013-01-09 12:46:00,
2013-01-09 07:01:00,47.3,46.0,30.36,ENE,76,0.0,-999.0,95,-99.99,,,0.03,weatherlink.com 1.10,2013-01-09 13:01:00,
2013-01-09 07:16:00,47.4,46.0,30.37,ENE,76,2.0,-999.0,95,-99.99,,,0.03,weatherlink.com 1.10,2013-01-09 13:16:00,
2013-01-09 07:31:00,47.4,46.0,30.37,NE,49,3.0,-999.0,95,-99.99,,,0.03,weatherlink.com 1.10,2013-01-09 13:31:00,
2013-01-09 07:46:00,47.6,46.0,30.36,NE,38,2.0,-999.0,95,-99.99,,,0.03,weatherlink.com 1.10,2013-01-09 13:46:00,
2013-01-09 08:01:00,47.8,47.0,30.37,NE,34,0.0,-999.0,95,-99.99,,,0.03,weatherlink.com 1.10,2013-01-09 14:01:00,
2013-01-09 08:16:00,48.1,47.0,30.38,NE,34,0.0,-999.0,95,-99.99,,,0.03,weatherlink.com 1.10,2013-01-09 14:16:00,
2013-01-09 08:31:00,48.5,47.0,30.39,NE,34,1.0,-999.0,95,-99.99,,,0.03,weatherlink.com 1.10,2013-01-09 14:31:00,
2013-01-09 08:46:00,48.8,48.0,30.39,NNE,12,1.0,-999.0,95,-99.99,,,0.03,weatherlink.com 1.10,2013-01-09 14:46:00,
2013-01-09 09:01:00,49.2,48.0,30.39,NE,51,2.0,-999.0,94,-99.99,,,0.03,weatherlink.com 1.10,2013-01-09 15:01:00,
2013-01-09 09:16:00,49.4,48.0,30.39,NE,52,4.0,-999.0,93,-99.99,,,0.03,weatherlink.com 1.10,2013-01-09 15:16:00,
2013-01-09 09:31:00,49.9,48.0,30.38,NE,34,1.0,-999.0,93,-99.99,,,0.03,weatherlink.com 1.10,2013-01-09 15:31:00,
2013-01-09 09:46:00,50.3,48.0,30.39,NNE,21,1.0,-999.0,92,-99.99,,,0.03,weatherlink.com 1.10,2013-01-09 15:46:00,
2013-01-09 10:01:00,50.8,48.0,30.39,NE,44,2.0,-999.0,91,-99.99,,,0.03,weatherlink.com 1.10,2013-01-09 16:01:00,
2013-01-09 10:16:00,51.4,49.0,30.38,NE,40,3.0,-999.0,90,-99.99,,,0.03,weatherlink.com 1.10,2013-01-09 16:16:00,
2013-01-09 10:31:00,51.8,49.0,30.36,NE,45,2.0,-999.0,90,-99.99,,,0.03,weatherlink.com 1.10,2013-01-09 16:31:00,
2013-01-09 10:46:00,52.1,49.0,30.36,NNE,19,6.0,-999.0,89,-99.99,,,0.03,weatherlink.com 1.10,2013-01-09 16:46:00,
2013-01-09 11:01:00,52.2,49.0,30.35,NE,34,6.0,-999.0,89,-99.99,,,0.03,weatherlink.com 1.10,2013-01-09 17:01:00,
2013-01-09 11:16:00,52.4,49.0,30.36,ENE,59,2.0,-999.0,88,-99.99,,,0.03,weatherlink.com 1.10,2013-01-09 17:16:00,
2013-01-09 11:31:00,52.8,49.0,30.35,NNE,28,2.0,-999.0,88,-99.99,,,0.03,weatherlink.com 1.10,2013-01-09 17:31:00,
2013-01-09 11:46:00,53.2,50.0,30.34,ENE,61,4.0,-999.0,89,-99.99,,,0.03,weatherlink.com 1.10,2013-01-09 17:46:00,
2013-01-09 12:01:00,53.8,50.0,30.33,NE,53,0.0,-999.0,87,-99.99,,,0.03,weatherlink.com 1.10,2013-01-09 18:01:00,
2013-01-09 12:16:00,54.2,50.0,30.33,NE,37,3.0,-999.0,86,-99.99,,,0.03,weatherlink.com 1.10,2013-01-09 18:16:00,
2013-01-09 12:31:00,54.4,50.0,30.32,NE,44,2.0,-999.0,86,-99.99,,,0.03,weatherlink.com 1.10,2013-01-09 18:31:00,
2013-01-09 12:46:00,54.7,50.0,30.32,NNE,28,0.0,-999.0,85,-99.99,,,0.03,weatherlink.com 1.10,2013-01-09 18:46:00,
2013-01-09 13:02:00,54.8,50.0,30.32,ENE,65,2.0,-999.0,85,-99.99,,,0.03,weatherlink.com 1.10,2013-01-09 19:02:00,
2013-01-09 13:16:00,54.9,51.0,30.31,NE,51,2.0,-999.0,86,-99.99,,,0.03,weatherlink.com 1.10,2013-01-09 19:16:00,
2013-01-09 13:31:00,54.8,51.0,30.31,NNE,32,3.0,-999.0,86,-99.99,,,0.03,weatherlink.com 1.10,2013-01-09 19:31:00,
2013-01-09 13:47:00,55.1,51.0,30.31,NE,46,2.0,-999.0,86,-99.99,,,0.03,weatherlink.com 1.10,2013-01-09 19:47:00,
2013-01-09 14:02:00,55.2,51.0,30.31,NE,49,4.0,-999.0,85,-99.99,,,0.03,weatherlink.com 1.10,2013-01-09 20:02:00,
2013-01-09 14:17:00,55.4,51.0,30.31,NE,52,4.0,-999.0,85,-99.99,,,0.03,weatherlink.com 1.10,2013-01-09 20:17:00,
2013-01-09 14:32:00,55.4,51.0,30.31,NE,37,2.0,-999.0,85,-99.99,,,0.03,weatherlink.com 1.10,2013-01-09 20:32:00,
2013-01-09 14:47:00,55.5,51.0,30.31,NE,42,1.0,-999.0,85,-99.99,,,0.03,weatherlink.com 1.10,2013-01-09 20:47:00,
2013-01-09 15:02:00,55.6,51.0,30.32,NNE,26,4.0,-999.0,85,-99.99,,,0.03,weatherlink.com 1.10,2013-01-09 21:02:00,
2013-01-09 15:17:00,55.6,51.0,30.32,NNE,25,5.0,-999.0,85,-99.99,,,0.03,weatherlink.com 1.10,2013-01-09 21:17:00,
2013-01-09 15:32:00,55.8,52.0,30.31,ENE,62,2.0,-999.0,86,-99.99,,,0.03,weatherlink.com 1.10,2013-01-09 21:32:00,
2013-01-09 15:47:00,56.0,52.0,30.31,NE,42,4.0,-999.0,85,-99.99,,,0.03,weatherlink.com 1.10,2013-01-09 21:47:00,
2013-01-09 16:02:00,56.0,52.0,30.32,NE,54,2.0,-999.0,85,-99.99,,,0.03,weatherlink.com 1.10,2013-01-09 22:02:00,
2013-01-09 16:17:00,56.0,52.0,30.32,NE,34,3.0,-999.0,85,-99.99,,,0.03,weatherlink.com 1.10,2013-01-09 22:17:00,
2013-01-09 16:32:00,56.0,52.0,30.32,ENE,57,2.0,-999.0,86,-99.99,,,0.03,weatherlink.com 1.10,2013-01-09 22:32:00,
2013-01-09 16:47:00,55.9,52.0,30.32,NE,40,5.0,-999.0,86,-99.99,,,0.03,weatherlink.com 1.10,2013-01-09 22:47:00,
2013-01-09 17:02:00,56.0,52.0,30.32,NNE,32,4.0,-999.0,86,-99.99,,,0.03,weatherlink.com 1.10,2013-01-09 23:02:00,
2013-01-09 17:17:00,56.1,52.0,30.32,NE,48,3.0,-999.0,87,-99.99,,,0.03,weatherlink.com 1.10,2013-01-09 23:17:00,
2013-01-09 17:32:00,56.1,52.0,30.32,NE,50,3.0,-999.0,87,-99.99,,,0.03,weatherlink.com 1.10,2013-01-09 23:32:00,
2013-01-09 17:47:00,56.3,53.0,30.33,NE,51,3.0,-999.0,87,-99.99,,,0.03,weatherlink.com 1.10,2013-01-09 23:47:00,
2013-01-09 18:02:00,56.3,53.0,30.32,NE,38,2.0,-999.0,87,-99.99,,,0.03,weatherlink.com 1.10,2013-01-10 00:02:00,
2013-01-09 18:17:00,56.4,53.0,30.32,NE,38,5.0,-999.0,87,-99.99,,,0.03,weatherlink.com 1.10,2013-01-10 00:17:00,
2013-01-09 18:32:00,57.0,53.0,30.34,ENE,63,3.0,-999.0,87,-99.99,,,0.03,weatherlink.com 1.10,2013-01-10 00:32:00,
2013-01-09 18:47:00,57.2,53.0,30.34,ENE,63,4.0,-999.0,86,-99.99,,,0.03,weatherlink.com 1.10,2013-01-10 00:47:00,
2013-01-09 19:02:00,57.1,53.0,30.34,ENE,65,4.0,-999.0,87,-99.99,,,0.03,weatherlink.com 1.10,2013-01-10 01:02:00,
2013-01-09 19:17:00,57.2,53.0,30.34,ENE,71,5.0,-999.0,87,-99.99,,,0.03,weatherlink.com 1.10,2013-01-10 01:17:00,
2013-01-09 19:32:00,57.1,53.0,30.33,ENE,75,4.0,-999.0,87,-99.99,,,0.03,weatherlink.com 1.10,2013-01-10 01:32:00,
2013-01-09 19:47:00,57.0,53.0,30.34,NE,52,5.0,-999.0,87,-99.99,,,0.03,weatherlink.com 1.10,2013-01-10 01:47:00,
2013-01-09 20:02:00,57.0,53.0,30.34,East,86,8.0,-999.0,87,-99.99,,,0.03,weatherlink.com 1.10,2013-01-10 02:02:00,
2013-01-09 20:17:00,57.0,53.0,30.35,East,98,5.0,-999.0,87,-99.99,,,0.03,weatherlink.com 1.10,2013-01-10 02:17:00,
2013-01-09 20:32:00,57.0,54.0,30.35,ENE,62,2.0,-999.0,88,-99.99,,,0.03,weatherlink.com 1.10,2013-01-10 02:32:00,
2013-01-09 20:47:00,56.7,53.0,30.35,NE,56,3.0,-999.0,88,-99.99,,,0.03,weatherlink.com 1.10,2013-01-10 02:47:00,
2013-01-09 21:02:00,56.6,54.0,30.35,ENE,75,5.0,-999.0,89,-99.99,,,0.03,weatherlink.com 1.10,2013-01-10 03:02:00,
2013-01-09 21:17:00,56.6,54.0,30.34,NE,50,2.0,-999.0,89,-99.99,,,0.03,weatherlink.com 1.10,2013-01-10 03:17:00,
2013-01-09 21:32:00,56.6,54.0,30.34,East,82,5.0,-999.0,89,-99.99,,,0.03,weatherlink.com 1.10,2013-01-10 03:32:00,
2013-01-09 21:47:00,56.8,54.0,30.34,ENE,74,2.0,-999.0,89,-99.99,,,0.03,weatherlink.com 1.10,2013-01-10 03:47:00,
2013-01-09 22:02:00,56.8,54.0,30.34,East,91,5.0,-999.0,89,-99.99,,,0.03,weatherlink.com 1.10,2013-01-10 04:02:00,
2013-01-09 22:17:00,56.6,54.0,30.35,ENE,59,4.0,-999.0,89,-99.99,,,0.03,weatherlink.com 1.10,2013-01-10 04:17:00,
2013-01-09 22:47:00,56.1,54.0,30.34,ENE,65,4.0,-999.0,92,-99.99,,,0.03,weatherlink.com 1.10,2013-01-10 04:47:00,
2013-01-09 23:02:00,55.6,54.0,30.35,NE,47,1.0,-999.0,93,-99.99,,,0.04,weatherlink.com 1.10,2013-01-10 05:02:00,
2013-01-09 23:17:00,55.3,54.0,30.35,NE,55,3.0,-999.0,94,-99.99,,,0.04,weatherlink.com 1.10,2013-01-10 05:17:00,
2013-01-09 23:49:00,55.0,53.0,30.35,ENE,57,3.0,-999.0,94,-99.99,,,0.04,weatherlink.com 1.10,2013-01-10 05:49:00,